The Vicarage Weather Station Historical Data
 
Daily Summary for February 22, 2024 Units:  Metric    English   Both
Daily Weekly Monthly Yearly
  Current: High: Low: Average:
Temperature: 19.7 °C 20.3 °C 18.6 °C 19.4 °C
Dew Point: 7.4 °C 9.3 °C 5.2 °C 7 °C
Humidity: 45% 51% 41% 45%
Wind Speed: 0km/h 0km/h 0km/h 0km/h
Wind Gust: 0km/h 0km/h - -
WindCalm - - North
Pressure: 1000.6 hPa 1011.4 hPa 1000.6 hPa -
Precipitation: 0.0 mm      
 
 
Tabular Data for February 22, 2024
Time Temperature Dew Point Pressure Wind Wind Speed Wind Gust Humidity Rainfall Rate (Hourly) solar
00:10 20.2 °C 7.6 °C 1011.4 hPa Calm     44% 0.0 mm 0 W/m2
00:20 20.3 °C 7.3 °C 1011.2 hPa Calm     43% 0.0 mm 0 W/m2
00:30 20.3 °C 7.3 °C 1011.1 hPa Calm     43% 0.0 mm 0 W/m2
00:40 20.2 °C 7.2 °C 1011.2 hPa Calm     43% 0.0 mm 0 W/m2
00:50 20.3 °C 7.3 °C 1011.0 hPa Calm     43% 0.0 mm 0 W/m2
01:00 20.2 °C 7.2 °C 1010.8 hPa Calm     43% 0.0 mm 0 W/m2
01:10 20.2 °C 6.8 °C 1010.6 hPa Calm     42% 0.0 mm 0 W/m2
01:20 20.1 °C 6.8 °C 1010.6 hPa Calm     42% 0.0 mm 0 W/m2
01:30 20.1 °C 6.8 °C 1010.5 hPa Calm     42% 0.0 mm 0 W/m2
01:40 20.1 °C 6.7 °C 1010.3 hPa Calm     42% 0.0 mm 0 W/m2
01:50 20 °C 6.7 °C 1010.3 hPa Calm     42% 0.0 mm 0 W/m2
02:00 19.9 °C 6.6 °C 1010.0 hPa Calm     42% 0.0 mm 0 W/m2
02:10 19.9 °C 6.6 °C 1009.9 hPa Calm     42% 0.0 mm 0 W/m2
02:20 19.8 °C 6.6 °C 1009.7 hPa Calm     42% 0.0 mm 0 W/m2
02:30 19.7 °C 6.4 °C 1009.4 hPa Calm     42% 0.0 mm 0 W/m2
02:40 19.7 °C 6.4 °C 1009.4 hPa Calm     42% 0.0 mm 0 W/m2
02:50 19.6 °C 6.3 °C 1009.2 hPa Calm     42% 0.0 mm 0 W/m2
03:00 19.6 °C 5.9 °C 1009.1 hPa Calm     41% 0.0 mm 0 W/m2
03:10 19.5 °C 5.9 °C 1009.0 hPa Calm     41% 0.0 mm 0 W/m2
03:20 19.4 °C 5.8 °C 1008.9 hPa Calm     41% 0.0 mm 0 W/m2
03:30 19.4 °C 5.8 °C 1008.6 hPa Calm     41% 0.0 mm 0 W/m2
03:40 19.3 °C 5.7 °C 1008.5 hPa Calm     41% 0.0 mm 0 W/m2
03:50 19.3 °C 5.7 °C 1008.4 hPa Calm     41% 0.0 mm 0 W/m2
04:00 19.3 °C 5.7 °C 1008.4 hPa Calm     41% 0.0 mm 0 W/m2
04:10 19.2 °C 5.7 °C 1008.2 hPa Calm     41% 0.0 mm 0 W/m2
04:20 19.2 °C 5.7 °C 1008.2 hPa Calm     41% 0.0 mm 0 W/m2
04:30 19.2 °C 5.6 °C 1008.3 hPa Calm     41% 0.0 mm 0 W/m2
04:40 19.2 °C 5.6 °C 1008.0 hPa Calm     41% 0.0 mm 0 W/m2
04:50 19.2 °C 5.6 °C 1007.9 hPa Calm     41% 0.0 mm 0 W/m2
05:00 19.1 °C 5.6 °C 1007.9 hPa Calm     41% 0.0 mm 0 W/m2
05:10 19.1 °C 5.6 °C 1007.8 hPa Calm     41% 0.0 mm 0 W/m2
05:20 19.1 °C 5.5 °C 1007.6 hPa Calm     41% 0.0 mm 0 W/m2
05:30 19.1 °C 5.5 °C 1007.5 hPa Calm     41% 0.0 mm 0 W/m2
05:40 19 °C 5.4 °C 1007.5 hPa Calm     41% 0.0 mm 0 W/m2
05:50 18.9 °C 5.4 °C 1007.5 hPa Calm     41% 0.0 mm 0 W/m2
06:00 18.9 °C 5.4 °C 1007.3 hPa Calm     41% 0.0 mm 0 W/m2
06:10 18.9 °C 5.3 °C 1007.2 hPa Calm     41% 0.0 mm 0 W/m2
06:20 18.9 °C 5.3 °C 1007.2 hPa Calm     41% 0.0 mm 0 W/m2
06:30 18.9 °C 5.3 °C 1007.1 hPa Calm     41% 0.0 mm 0 W/m2
06:40 18.8 °C 5.3 °C 1007.0 hPa Calm     41% 0.0 mm 0 W/m2
06:50 18.8 °C 5.3 °C 1006.8 hPa Calm     41% 0.0 mm 0 W/m2
07:00 18.8 °C 5.2 °C 1006.7 hPa Calm     41% 0.0 mm 0 W/m2
07:10 18.8 °C 5.3 °C 1006.7 hPa Calm     41% 0.0 mm 0 W/m2
07:20 18.8 °C 5.2 °C 1006.7 hPa Calm     41% 0.0 mm 0 W/m2
07:30 18.8 °C 5.2 °C 1006.5 hPa Calm     41% 0.0 mm 0 W/m2
07:40 18.8 °C 5.2 °C 1006.6 hPa Calm     41% 0.0 mm 0 W/m2
07:50 18.8 °C 5.2 °C 1006.6 hPa Calm     41% 0.0 mm 0 W/m2
08:00 18.8 °C 5.2 °C 1006.3 hPa Calm     41% 0.0 mm 0 W/m2
08:10 18.8 °C 5.2 °C 1006.4 hPa Calm     41% 0.0 mm 0 W/m2
08:20 18.8 °C 5.6 °C 1006.3 hPa Calm     42% 0.0 mm 0 W/m2
08:30 18.7 °C 5.6 °C 1006.4 hPa Calm     42% 0.0 mm 0 W/m2
08:40 18.7 °C 5.9 °C 1006.3 hPa Calm     43% 0.0 mm 0 W/m2
08:50 18.7 °C 5.9 °C 1006.2 hPa Calm     43% 0.0 mm 0 W/m2
09:00 18.7 °C 6.2 °C 1006.3 hPa Calm     44% 0.0 mm 0 W/m2
09:10 18.7 °C 6.2 °C 1006.2 hPa Calm     44% 0.0 mm 0 W/m2
09:20 18.7 °C 6.2 °C 1006.1 hPa Calm     44% 0.0 mm 0 W/m2
09:30 18.6 °C 6.1 °C 1006.0 hPa Calm     44% 0.0 mm 0 W/m2
09:40 18.6 °C 6.4 °C 1006.0 hPa Calm     45% 0.0 mm 0 W/m2
09:50 18.6 °C 6.4 °C 1005.9 hPa Calm     45% 0.0 mm 0 W/m2
10:00 18.7 °C 6.8 °C 1005.5 hPa Calm     46% 0.0 mm 0 W/m2
10:10 18.7 °C 7.5 °C 1005.5 hPa Calm     48% 0.0 mm 0 W/m2
10:20 18.8 °C 7.6 °C 1005.4 hPa Calm     48% 0.0 mm 0 W/m2
10:30 18.8 °C 7.6 °C 1005.2 hPa Calm     48% 0.0 mm 0 W/m2
10:40 18.8 °C 7.6 °C 1005.1 hPa Calm     48% 0.0 mm 0 W/m2
10:50 18.9 °C 7.6 °C 1005.1 hPa Calm     48% 0.0 mm 0 W/m2
11:00 18.9 °C 7.6 °C 1005.1 hPa Calm     48% 0.0 mm 0 W/m2
11:10 18.9 °C 7.4 °C 1005.1 hPa Calm     47% 0.0 mm 0 W/m2
11:20 18.9 °C 7.3 °C 1005.0 hPa Calm     47% 0.0 mm 0 W/m2
11:30 18.9 °C 7.4 °C 1004.9 hPa Calm     47% 0.0 mm 0 W/m2
11:40 18.9 °C 7.4 °C 1004.7 hPa Calm     47% 0.0 mm 0 W/m2
11:50 18.9 °C 7.1 °C 1004.7 hPa Calm     46% 0.0 mm 0 W/m2
12:00 18.9 °C 7 °C 1004.7 hPa Calm     46% 0.0 mm 0 W/m2
12:10 18.9 °C 7 °C 1004.5 hPa Calm     46% 0.0 mm 0 W/m2
12:20 18.9 °C 7 °C 1004.4 hPa Calm     46% 0.0 mm 0 W/m2
12:30 18.9 °C 7 °C 1004.3 hPa Calm     46% 0.0 mm 0 W/m2
12:40 18.9 °C 6.7 °C 1004.1 hPa Calm     45% 0.0 mm 0 W/m2
12:50 18.9 °C 7.1 °C 1004.0 hPa Calm     46% 0.0 mm 0 W/m2
13:00 19 °C 7.1 °C 1003.9 hPa Calm     46% 0.0 mm 0 W/m2
13:10 19.1 °C 6.8 °C 1003.7 hPa Calm     45% 0.0 mm 0 W/m2
13:20 19.2 °C 6.9 °C 1003.5 hPa Calm     45% 0.0 mm 0 W/m2
13:30 19.2 °C 7 °C 1003.4 hPa Calm     45% 0.0 mm 0 W/m2
13:40 19.3 °C 7.1 °C 1003.3 hPa Calm     45% 0.0 mm 0 W/m2
13:50 19.3 °C 7.1 °C 1003.2 hPa Calm     45% 0.0 mm 0 W/m2
14:00 19.3 °C 6.8 °C 1003.1 hPa Calm     44% 0.0 mm 0 W/m2
14:10 19.4 °C 6.8 °C 1003.0 hPa Calm     44% 0.0 mm 0 W/m2
14:20 19.4 °C 6.8 °C 1002.8 hPa Calm     44% 0.0 mm 0 W/m2
14:30 19.4 °C 6.9 °C 1002.7 hPa Calm     44% 0.0 mm 0 W/m2
14:40 19.4 °C 6.9 °C 1002.7 hPa Calm     44% 0.0 mm 0 W/m2
14:50 19.4 °C 6.9 °C 1002.5 hPa Calm     44% 0.0 mm 0 W/m2
15:00 19.4 °C 6.9 °C 1002.5 hPa Calm     44% 0.0 mm 0 W/m2
15:10 19.4 °C 6.9 °C 1002.5 hPa Calm     44% 0.0 mm 0 W/m2
15:20 19.5 °C 6.9 °C 1002.5 hPa Calm     44% 0.0 mm 0 W/m2
15:30 19.5 °C 6.9 °C 1002.3 hPa Calm     44% 0.0 mm 0 W/m2
15:40 19.6 °C 6.9 °C 1002.3 hPa Calm     44% 0.0 mm 0 W/m2
15:50 19.6 °C 6.9 °C 1002.1 hPa Calm     44% 0.0 mm 0 W/m2
16:00 19.6 °C 7 °C 1002.1 hPa Calm     44% 0.0 mm 0 W/m2
16:10 19.7 °C 7.7 °C 1002.1 hPa Calm     46% 0.0 mm 0 W/m2
16:20 19.7 °C 8.9 °C 1002.1 hPa Calm     50% 0.0 mm 0 W/m2
16:30 19.8 °C 9.3 °C 1002.2 hPa Calm     51% 0.0 mm 0 W/m2
16:40 19.8 °C 9.1 °C 1002.1 hPa Calm     50% 0.0 mm 0 W/m2
16:50 19.8 °C 9.1 °C 1002.0 hPa Calm     50% 0.0 mm 0 W/m2
17:00 19.8 °C 8.8 °C 1001.9 hPa Calm     49% 0.0 mm 0 W/m2
17:10 19.9 °C 8.8 °C 1001.8 hPa Calm     49% 0.0 mm 0 W/m2
17:20 19.9 °C 8.8 °C 1001.6 hPa Calm     49% 0.0 mm 0 W/m2
17:30 19.9 °C 8.6 °C 1001.5 hPa Calm     48% 0.0 mm 0 W/m2
17:40 19.9 °C 8.6 °C 1001.2 hPa Calm     48% 0.0 mm 0 W/m2
17:50 19.9 °C 8.2 °C 1001.2 hPa Calm     47% 0.0 mm 0 W/m2
18:00 19.8 °C 8.2 °C 1001.1 hPa Calm     47% 0.0 mm 0 W/m2
18:10 19.9 °C 8.2 °C 1001.2 hPa Calm     47% 0.0 mm 0 W/m2
18:20 19.8 °C 8.2 °C 1001.4 hPa Calm     47% 0.0 mm 0 W/m2
18:30 19.8 °C 8.2 °C 1001.4 hPa Calm     47% 0.0 mm 0 W/m2
18:40 19.8 °C 8.2 °C 1001.5 hPa Calm     47% 0.0 mm 0 W/m2
18:50 19.8 °C 8.2 °C 1001.8 hPa Calm     47% 0.0 mm 0 W/m2
19:00 19.8 °C 8.2 °C 1001.8 hPa Calm     47% 0.0 mm 0 W/m2
19:10 19.8 °C 8.2 °C 1001.8 hPa Calm     47% 0.0 mm 0 W/m2
19:20 19.8 °C 8.2 °C 1001.9 hPa Calm     47% 0.0 mm 0 W/m2
19:30 19.8 °C 8.2 °C 1002.0 hPa Calm     47% 0.0 mm 0 W/m2
19:40 19.8 °C 8.2 °C 1001.9 hPa Calm     47% 0.0 mm 0 W/m2
19:50 19.9 °C 8.2 °C 1001.9 hPa Calm     47% 0.0 mm 0 W/m2
20:00 19.9 °C 8.2 °C 1001.8 hPa Calm     47% 0.0 mm 0 W/m2
20:10 19.9 °C 8.2 °C 1001.8 hPa Calm     47% 0.0 mm 0 W/m2
20:20 19.9 °C 8.2 °C 1001.7 hPa Calm     47% 0.0 mm 0 W/m2
20:30 19.9 °C 8.2 °C 1001.6 hPa Calm     47% 0.0 mm 0 W/m2
20:40 19.9 °C 8.2 °C 1001.6 hPa Calm     47% 0.0 mm 0 W/m2
20:50 19.9 °C 7.9 °C 1001.5 hPa Calm     46% 0.0 mm 0 W/m2
21:00 19.9 °C 7.9 °C 1001.4 hPa Calm     46% 0.0 mm 0 W/m2
21:10 19.9 °C 7.9 °C 1001.6 hPa Calm     46% 0.0 mm 0 W/m2
21:20 19.8 °C 7.9 °C 1001.5 hPa Calm     46% 0.0 mm 0 W/m2
21:30 19.8 °C 7.9 °C 1001.5 hPa Calm     46% 0.0 mm 0 W/m2
21:40 19.8 °C 7.9 °C 1001.5 hPa Calm     46% 0.0 mm 0 W/m2
21:50 19.8 °C 7.9 °C 1001.4 hPa Calm     46% 0.0 mm 0 W/m2
22:00 19.8 °C 7.8 °C 1001.2 hPa Calm     46% 0.0 mm 0 W/m2
22:10 19.8 °C 8.1 °C 1001.1 hPa Calm     47% 0.0 mm 0 W/m2
22:20 19.8 °C 7.8 °C 1001.0 hPa Calm     46% 0.0 mm 0 W/m2
22:30 19.8 °C 7.8 °C 1000.9 hPa Calm     46% 0.0 mm 0 W/m2
22:40 19.8 °C 7.8 °C 1000.9 hPa Calm     46% 0.0 mm 0 W/m2
22:50 19.8 °C 7.8 °C 1000.8 hPa Calm     46% 0.0 mm 0 W/m2
23:00 19.7 °C 7.4 °C 1000.6 hPa Calm     45% 0.0 mm 0 W/m2
Vicarage Weather
Compliments of Weather Underground - 2 mb
This data is offered only as a general guide to local weather conditions. It should not be relied upon in lieu of officially disseminated weather information for determining possible risk to persons or property. This site, including all information contained therein, is made available as is without warranties of any kind, either express or implied. The Vicarage Weather Feed© includes links to other sites for user convenience only. The content of any linked third-party site is not controlled by The Vicarage Weather Feed©. Access to any third-party website through The Vicarage Weather Feed©, regardless of whether or not the third-party site is a linked site, is entirely at the users own risk. Externally sourced content or material is excluded from The Vicarage Weather Feed© copyright and is the copyright and property of the respective provider. Skywarn® and the Skywarn® logo are registered trademarks of the National Oceanic and Atmospheric Administration, used with permission.